Overview Statistics Trail Chart Weather Telemetry Raw packets
 

This is the latest recevied weather packets stored in our database for station/object OK1FET-5. If no packets are shown the sender has not sent any weather packets the latest 10 day(s).

<< 8 9 10 11 12 13 14 >>
Time Temp. Humidity Pressure Rain* Wind** Luminosity Snow
1788453822 20.56° C 56% 1020.3 hPa - - - -
1788453226 21.11° C 55% 1020.1 hPa - - - -
1788452631 21.11° C 53% 1019.8 hPa - - - -
1788452035 21.67° C 52% 1019.8 hPa - - - -
1788451439 21.67° C 51% 1019.7 hPa - - - -
1788450843 22.22° C 50% 1019.6 hPa - - - -
1788450248 22.22° C 49% 1019.7 hPa - - - -
1788449652 22.22° C 48% 1019.7 hPa - - - -
1788449056 22.78° C 49% 1019.7 hPa - - - -
1788448460 22.78° C 47% 1019.7 hPa - - - -
1788447865 23.33° C 46% 1019.7 hPa - - - -
1788447269 23.89° C 45% 1019.8 hPa - - - -
1788446673 24.44° C 43% 1019.9 hPa - - - -
1788446077 25° C 43% 1019.9 hPa - - - -
1788445482 24.44° C 43% 1019.8 hPa - - - -
1788444886 24.44° C 43% 1020 hPa - - - -
1788444290 24.44° C 43% 1020.1 hPa - - - -
1788443694 24.44° C 43% 1020.1 hPa - - - -
1788443099 23.89° C 42% 1020.2 hPa - - - -
1788442503 24.44° C 41% 1020.3 hPa - - - -
1788441907 25° C 41% 1020.6 hPa - - - -
1788441311 25.56° C 39% 1020.4 hPa - - - -
1788440715 26.67° C 37% 1020.3 hPa - - - -
1788440120 26.11° C 38% 1020.4 hPa - - - -
1788439524 26.67° C 37% 1020.3 hPa - - - -

* Rain since midnight (hover to see other rain measurements)
** Current wind speed in m/s (hover to see current wind gust speed)